CZ-4B DEB, 40532

Orbit data source: Space-Track

CZ-4B DEB, 40532 is space debris in LEO originally from a launch on Fri, 25 Oct 2013 UTC launched from the Jiuquan Satellite Launch Center, China (JSC). Debris objects in space refer to the collection of defunct objects orbiting the Earth. Examples of debris include non-operational satellites, rocket bodies, and fragments generated from explosions, collisions, or faulty payload assembly.

Loading next visibility...
Identifier
40532, 2013-057E
Orbit
LEO
Country
Flag of CNCN / PRC
Related business
Manufacturer
SAST
Mission
Spacecraft
Bus & Motor
Unknown
Mass
Unknown
Launch date (UTC)
2013-10-25 (12 years ago)
Launch vehicle
Unknown
Launch site
Jiuquan Satellite Launch Center, China (JSC)
Object type
Payload
Rocket body
Debris
Shape & HBR
Unknown
Radar Cross Section
Small (<0.1 m²)

Expand to show TLE details & history
Last TLE update: 2 days ago

TLE from 2 days ago
0 CZ-4B DEB
1 40532U 13057E   25259.46068606  .00004857  00000-0  90674-3 0  9992
2 40532  74.8712 327.9349 0188430 223.9806 134.6240 14.54329785551667
Epoch: 2025-09-16T11:03Z
TLE epoch observation values (Epoch: 2025-09-16T11:03:23.275Z)
Latitude
0.00001°
Longitude
166.43726°
Altitude
809.329 km
Speed
7.399 km/s
True Right ascension
21h 51m 44s
True Declination
0° 00' 00"
Sunlit
Object was in full shadow at epoch
Visualization orbit readout
Latitude
Unknown
Longitude
Unknown
Altitude
Unknown
Speed
Unknown
Apparent Right ascension
Unknown
Apparent Declination
Unknown
Sunlit
N/A
Visualization observer readout
Local Sidereal Time
04:55:59
Azimuth
Unknown
Elevation
Unknown
Doppler factor
Unknown
Orbital elements
Apogee altitude
842.619 km
Perigee altitude
575.53 km
Semi-major axis
7,087.211 km
Eccentricity
0.01884
Inclination
74.8712°
RAAN
327.9349°
Arg. of periapsis
223.9806°
True anomaly
136.1356°
Mean anomaly
134.624°
Eccentric anomaly
135.3823°
Mean motion
3.63773 °/min
Orbital period
98.96 mins
BSTAR
0.00090674
Loading maneuver chart data...
Computing Atmospheric mass density...
Loading historical data...
Loading historical data...
Loading historical data...
Loading historical data...
Loading historical data...
Loading historical data...
Loading historical data...
Other satellites on launch #57 in the year 2013 (2013-10-25 UTC)

Documentation

Showing up to 5 results
|